Time,TemperatureF,DewpointF,PressureIn,WindDirection,WindDirectionDegrees,WindSpeedMPH,WindSpeedGustMPH,Humidity,HourlyPrecipIn,Conditions,Clouds,dailyrainin,SolarRadiationWatts/m^2,SoftwareType,DateUTC
2013-07-28 00:02:00,76.0,66.0,29.45,ESE,107,0.0,0.0,72,0.00,,,0.02,0.000000,,2013-07-28 05:02:00,
2013-07-28 00:12:00,76.0,66.0,29.97,ESE,107,0.0,0.0,72,0.00,,,0.02,0.000000,,2013-07-28 05:12:00,
2013-07-28 00:32:00,75.0,66.0,29.98,ESE,107,0.0,0.0,74,0.00,,,0.02,0.000000,,2013-07-28 05:32:00,
2013-07-28 00:43:00,75.0,67.0,29.94,ESE,107,0.0,0.0,75,0.00,,,0.02,0.000000,,2013-07-28 05:43:00,
2013-07-28 01:02:00,74.0,66.0,29.98,ESE,107,0.0,0.0,76,0.00,,,0.02,0.000000,,2013-07-28 06:02:00,
2013-07-28 01:12:00,74.0,66.0,29.98,ESE,107,0.0,0.0,76,0.00,,,0.02,0.000000,,2013-07-28 06:12:00,
2013-07-28 01:32:00,73.0,66.0,29.96,ESE,107,0.0,0.0,79,0.00,,,0.02,0.000000,,2013-07-28 06:32:00,
2013-07-28 01:42:00,73.0,66.0,29.96,ESE,107,0.0,0.0,80,0.00,,,0.02,0.000000,,2013-07-28 06:42:00,
2013-07-28 01:52:00,73.0,67.0,29.96,ESE,107,0.0,0.0,81,0.00,,,0.02,0.000000,,2013-07-28 06:52:00,
2013-07-28 02:02:00,72.0,66.0,29.96,ESE,107,0.0,0.0,81,0.00,,,0.02,0.000000,,2013-07-28 07:02:00,
2013-07-28 02:12:00,72.0,66.0,29.93,ESE,107,0.0,0.0,82,0.00,,,0.02,0.000000,,2013-07-28 07:12:00,
2013-07-28 02:32:00,71.0,66.0,29.70,ESE,107,0.0,0.0,83,0.00,,,0.02,0.000000,,2013-07-28 07:32:00,
2013-07-28 02:42:00,71.0,66.0,29.83,ESE,107,0.0,0.0,84,0.00,,,0.02,0.000000,,2013-07-28 07:42:00,
2013-07-28 02:53:00,71.0,66.0,29.62,ESE,107,0.0,0.0,84,0.00,,,0.02,0.000000,,2013-07-28 07:53:00,
2013-07-28 03:02:00,70.0,65.0,29.72,ESE,107,0.0,0.0,85,0.00,,,0.02,0.000000,,2013-07-28 08:02:00,
2013-07-28 03:12:00,70.0,65.0,29.95,ESE,107,0.0,0.0,85,0.00,,,0.02,0.000000,,2013-07-28 08:12:00,
2013-07-28 03:22:00,70.0,65.0,29.81,ESE,107,0.0,0.0,85,0.00,,,0.02,0.000000,,2013-07-28 08:22:00,
2013-07-28 03:33:00,70.0,66.0,29.95,ESE,107,0.0,0.0,86,0.00,,,0.02,0.000000,,2013-07-28 08:33:00,
2013-07-28 03:42:00,69.0,65.0,29.95,ESE,107,0.0,0.0,86,0.00,,,0.02,0.000000,,2013-07-28 08:42:00,
2013-07-28 04:02:00,69.0,65.0,29.91,ESE,107,0.0,0.0,87,0.00,,,0.02,0.000000,,2013-07-28 09:02:00,
2013-07-28 04:12:00,69.0,65.0,29.62,ESE,107,0.0,0.0,87,0.00,,,0.02,0.000000,,2013-07-28 09:12:00,
2013-07-28 04:22:00,69.0,65.0,29.62,ESE,107,0.0,0.0,87,0.00,,,0.02,0.000000,,2013-07-28 09:22:00,
2013-07-28 04:32:00,68.0,64.0,29.54,ESE,107,0.0,0.0,88,0.00,,,0.02,0.000000,,2013-07-28 09:32:00,
2013-07-28 04:43:00,68.0,64.0,29.54,ESE,107,0.0,0.0,88,0.00,,,0.02,0.000000,,2013-07-28 09:43:00,
2013-07-28 04:53:00,68.0,64.0,29.56,ESE,107,0.0,0.0,88,0.00,,,0.02,0.000000,,2013-07-28 09:53:00,
2013-07-28 05:02:00,68.0,64.0,29.96,ESE,107,0.0,0.0,88,0.00,,,0.02,0.000000,,2013-07-28 10:02:00,
2013-07-28 05:12:00,68.0,65.0,29.96,ESE,107,0.0,0.0,89,0.00,,,0.02,0.000000,,2013-07-28 10:12:00,
2013-07-28 05:22:00,68.0,65.0,29.96,ESE,107,0.0,0.0,89,0.00,,,0.02,0.000000,,2013-07-28 10:22:00,
2013-07-28 05:32:00,68.0,65.0,29.96,ESE,107,0.0,0.0,89,0.00,,,0.02,0.000000,,2013-07-28 10:32:00,
2013-07-28 05:42:00,68.0,65.0,29.73,ESE,107,0.0,0.0,89,0.00,,,0.02,0.000000,,2013-07-28 10:42:00,
2013-07-28 05:52:00,68.0,65.0,29.73,ESE,107,0.0,0.0,89,0.00,,,0.02,0.000000,,2013-07-28 10:52:00,
2013-07-28 06:12:00,67.0,64.0,29.86,ESE,107,0.0,0.0,90,0.00,,,0.02,0.000000,,2013-07-28 11:12:00,
2013-07-28 06:22:00,67.0,64.0,29.61,ESE,107,0.0,0.0,90,0.00,,,0.02,0.000000,,2013-07-28 11:22:00,
2013-07-28 06:33:00,67.0,64.0,29.73,ESE,107,0.0,0.0,90,0.00,,,0.02,0.000000,,2013-07-28 11:33:00,
2013-07-28 06:43:00,67.0,64.0,29.73,ESE,107,0.0,0.0,90,0.00,,,0.02,0.000000,,2013-07-28 11:43:00,
2013-07-28 06:53:00,67.0,64.0,29.96,ESE,107,0.0,0.0,90,0.00,,,0.02,0.000000,,2013-07-28 11:53:00,
2013-07-28 07:02:00,67.0,64.0,29.97,ESE,107,0.0,0.0,90,0.00,,,0.02,1.000000,,2013-07-28 12:02:00,
2013-07-28 07:12:00,67.0,64.0,29.97,ESE,107,0.0,0.0,90,0.00,,,0.02,1.000000,,2013-07-28 12:12:00,
2013-07-28 07:33:00,67.0,64.0,29.59,ESE,107,0.0,0.0,91,0.00,,,0.02,2.000000,,2013-07-28 12:33:00,
2013-07-28 07:43:00,67.0,64.0,29.54,ESE,107,0.0,1.0,91,0.00,,,0.02,2.000000,,2013-07-28 12:43:00,
2013-07-28 07:53:00,67.0,64.0,29.71,East,100,0.0,1.0,91,0.00,,,0.02,3.000000,,2013-07-28 12:53:00,
2013-07-28 08:12:00,68.0,66.0,29.97,East,100,0.0,0.0,92,0.00,,,0.02,3.000000,,2013-07-28 13:12:00,
2013-07-28 08:32:00,69.0,67.0,29.64,East,101,0.0,1.0,93,0.00,,,0.02,4.000000,,2013-07-28 13:32:00,
2013-07-28 08:43:00,70.0,68.0,29.70,ESE,102,0.0,1.0,92,0.00,,,0.01,4.000000,,2013-07-28 13:43:00,
2013-07-28 09:02:00,71.0,69.0,29.95,SE,134,0.0,2.0,92,0.00,,,0.00,4.000000,,2013-07-28 14:02:00,
2013-07-28 09:12:00,73.0,70.0,29.86,SSE,147,1.0,3.0,90,0.00,,,0.00,5.000000,,2013-07-28 14:12:00,
2013-07-28 09:33:00,75.0,70.0,29.70,SSE,156,1.0,5.0,84,0.00,,,0.00,6.000000,,2013-07-28 14:33:00,
2013-07-28 09:53:00,76.0,70.0,29.82,SSE,157,0.0,6.0,81,0.00,,,0.00,13.000000,,2013-07-28 14:53:00,
2013-07-28 10:02:00,77.0,70.0,29.82,SSE,154,1.0,3.0,80,0.00,,,0.00,6.000000,,2013-07-28 15:02:00,
2013-07-28 10:12:00,77.0,69.0,29.82,SSE,150,2.0,6.0,77,0.00,,,0.00,7.000000,,2013-07-28 15:12:00,
2013-07-28 10:32:00,78.0,70.0,29.16,SSE,151,1.0,8.0,76,0.00,,,0.00,11.000000,,2013-07-28 15:32:00,
2013-07-28 10:43:00,78.0,70.0,29.35,SSE,147,1.0,8.0,76,0.00,,,0.00,11.000000,,2013-07-28 15:43:00,
2013-07-28 11:02:00,79.0,70.0,29.35,SE,138,1.0,5.0,74,0.00,,,0.00,15.000000,,2013-07-28 16:02:00,
2013-07-28 11:12:00,80.0,71.0,29.26,SSE,149,1.0,5.0,73,0.00,,,0.00,87.000000,,2013-07-28 16:12:00,
2013-07-28 11:22:00,80.0,70.0,29.43,SSE,160,0.0,5.0,71,0.00,,,0.00,64.000000,,2013-07-28 16:22:00,
2013-07-28 11:33:00,81.0,70.0,29.43,SSE,154,0.0,5.0,70,0.00,,,0.00,86.000000,,2013-07-28 16:33:00,
2013-07-28 11:43:00,82.0,70.0,29.90,SSE,150,1.0,6.0,68,0.00,,,0.00,87.000000,,2013-07-28 16:43:00,
2013-07-28 12:02:00,83.0,71.0,29.13,SE,144,0.0,7.0,68,0.00,,,0.00,102.000000,,2013-07-28 17:02:00,
2013-07-28 12:12:00,84.0,72.0,29.06,NE,47,1.0,5.0,67,0.00,,,0.00,97.000000,,2013-07-28 17:12:00,
2013-07-28 12:32:00,86.0,72.0,29.35,SSE,150,1.0,5.0,64,0.00,,,0.00,95.000000,,2013-07-28 17:32:00,
2013-07-28 13:03:00,88.0,72.0,29.89,NE,47,2.0,5.0,60,0.00,,,0.00,102.000000,,2013-07-28 18:03:00,
2013-07-28 13:33:00,86.0,70.0,29.84,ESE,117,1.0,3.0,59,0.00,,,0.00,38.000000,,2013-07-28 18:33:00,
2013-07-28 13:43:00,86.0,71.0,29.84,NE,54,1.0,3.0,61,0.00,,,0.00,39.000000,,2013-07-28 18:43:00,
2013-07-28 14:02:00,86.0,71.0,29.96,ESE,106,0.0,2.0,62,0.00,,,0.00,39.000000,,2013-07-28 19:02:00,
2013-07-28 14:12:00,86.0,70.0,29.96,SE,133,0.0,3.0,60,0.00,,,0.00,115.000000,,2013-07-28 19:12:00,
2013-07-28 14:33:00,89.0,72.0,29.96,SSE,155,1.0,6.0,58,0.00,,,0.00,101.000000,,2013-07-28 19:33:00,
2013-07-28 15:02:00,90.0,71.0,29.78,SE,144,1.0,5.0,54,0.00,,,0.00,97.000000,,2013-07-28 20:02:00,
2013-07-28 15:12:00,90.0,71.0,29.82,SE,129,1.0,5.0,54,0.00,,,0.00,94.000000,,2013-07-28 20:12:00,
2013-07-28 15:22:00,90.0,72.0,29.82,SE,142,1.0,6.0,55,0.00,,,0.00,91.000000,,2013-07-28 20:22:00,
2013-07-28 15:33:00,90.0,72.0,29.81,SE,140,0.0,3.0,56,0.00,,,0.00,92.000000,,2013-07-28 20:33:00,
2013-07-28 15:43:00,90.0,71.0,29.81,SSE,165,2.0,6.0,54,0.00,,,0.00,43.000000,,2013-07-28 20:43:00,
2013-07-28 15:52:00,91.0,72.0,29.90,SSE,152,1.0,5.0,54,0.00,,,0.00,33.000000,,2013-07-28 20:52:00,
2013-07-28 16:02:00,91.0,72.0,29.90,SSE,152,1.0,5.0,54,0.00,,,0.00,33.000000,,2013-07-28 21:02:00,
2013-07-28 16:12:00,90.0,71.0,29.90,SE,145,1.0,3.0,53,0.00,,,0.00,13.000000,,2013-07-28 21:12:00,
2013-07-28 16:33:00,91.0,72.0,29.54,SE,143,0.0,6.0,54,0.00,,,0.00,9.000000,,2013-07-28 21:33:00,
2013-07-28 16:44:00,91.0,71.0,29.54,SE,146,1.0,6.0,52,0.00,,,0.00,9.000000,,2013-07-28 21:44:00,
2013-07-28 17:01:00,91.0,71.0,28.82,SSE,147,1.0,5.0,52,0.00,,,0.00,11.000000,,2013-07-28 22:01:00,
2013-07-28 17:12:00,91.0,71.0,28.82,SSE,152,0.0,3.0,52,0.00,,,0.00,17.000000,,2013-07-28 22:12:00,
2013-07-28 17:22:00,92.0,71.0,28.82,SSE,150,2.0,6.0,51,0.00,,,0.00,11.000000,,2013-07-28 22:22:00,
2013-07-28 17:32:00,91.0,71.0,28.82,SSE,152,1.0,6.0,52,0.00,,,0.00,13.000000,,2013-07-28 22:32:00,
2013-07-28 17:43:00,92.0,71.0,28.82,South,177,1.0,6.0,51,0.00,,,0.00,42.000000,,2013-07-28 22:43:00,
2013-07-28 18:03:00,92.0,72.0,29.52,SSE,153,1.0,3.0,52,0.00,,,0.00,45.000000,,2013-07-28 23:03:00,
2013-07-28 18:12:00,91.0,71.0,29.52,SE,144,2.0,6.0,52,0.00,,,0.00,43.000000,,2013-07-28 23:12:00,
2013-07-28 18:22:00,91.0,71.0,29.28,SSE,148,1.0,6.0,53,0.00,,,0.00,38.000000,,2013-07-28 23:22:00,
2013-07-28 18:32:00,91.0,71.0,29.28,SSE,148,1.0,6.0,53,0.00,,,0.00,38.000000,,2013-07-28 23:32:00,
2013-07-28 18:43:00,90.0,71.0,29.78,SSE,151,2.0,5.0,54,0.00,,,0.00,32.000000,,2013-07-28 23:43:00,
2013-07-28 19:02:00,90.0,72.0,29.72,SSE,151,2.0,6.0,55,0.00,,,0.00,23.000000,,2013-07-29 00:02:00,
2013-07-28 19:32:00,89.0,71.0,29.86,SSE,154,1.0,5.0,55,0.00,,,0.00,13.000000,,2013-07-29 00:32:00,
2013-07-28 19:52:00,89.0,71.0,29.83,SE,138,1.0,7.0,56,0.00,,,0.00,7.000000,,2013-07-29 00:52:00,
2013-07-28 20:02:00,89.0,72.0,29.83,SSE,160,1.0,5.0,57,0.00,,,0.00,5.000000,,2013-07-29 01:02:00,
2013-07-28 20:12:00,89.0,72.0,29.83,SE,143,1.0,5.0,57,0.00,,,0.00,3.000000,,2013-07-29 01:12:00,
2013-07-28 20:25:00,89.0,72.0,29.83,SE,143,1.0,5.0,57,0.00,,,0.00,3.000000,,2013-07-29 01:25:00,
2013-07-28 20:34:00,88.0,71.0,29.83,SSE,158,2.0,6.0,57,0.00,,,0.00,1.000000,,2013-07-29 01:34:00,
2013-07-28 21:04:00,87.0,71.0,27.97,SSE,148,0.0,1.0,60,0.00,,,0.00,0.000000,,2013-07-29 02:04:00,
2013-07-28 21:13:00,87.0,71.0,27.97,SSE,148,0.0,1.0,60,0.00,,,0.00,0.000000,,2013-07-29 02:13:00,
2013-07-28 21:36:00,86.0,71.0,29.53,SSE,148,0.0,1.0,62,0.00,,,0.00,0.000000,,2013-07-29 02:36:00,
2013-07-28 21:55:00,85.0,71.0,29.36,SSE,150,0.0,3.0,64,0.00,,,0.00,0.000000,,2013-07-29 02:55:00,
2013-07-28 22:03:00,85.0,72.0,29.36,SSE,149,0.0,5.0,66,0.00,,,0.00,0.000000,,2013-07-29 03:03:00,
2013-07-28 22:23:00,84.0,72.0,29.90,SSE,149,0.0,5.0,67,0.00,,,0.00,0.000000,,2013-07-29 03:23:00,
2013-07-28 22:46:00,84.0,72.0,29.34,SE,128,1.0,5.0,68,0.00,,,0.00,0.000000,,2013-07-29 03:46:00,
2013-07-28 23:02:00,84.0,73.0,29.34,SSE,148,1.0,7.0,70,0.00,,,0.00,0.000000,,2013-07-29 04:02:00,
2013-07-28 23:12:00,83.0,73.0,29.34,SSE,150,1.0,3.0,71,0.00,,,0.00,0.000000,,2013-07-29 04:12:00,
2013-07-28 23:22:00,83.0,73.0,29.50,SSE,155,1.0,5.0,71,0.00,,,0.00,0.000000,,2013-07-29 04:22:00,
2013-07-28 23:32:00,83.0,73.0,29.69,SSE,154,2.0,6.0,71,0.00,,,0.00,0.000000,,2013-07-29 04:32:00,